Weather History for Amberley Military, Queensland

Change the Weather History Date:

Thursday, May 9, 2013

  Actual Average Record
Temperature  
Mean Temperature 60 °F -  
Max Temperature 75 °F - - ()
Min Temperature 46 °F - - ()
Degree Days  
Heating Degree Days 4    
Growing Degree Days 10 (Base 50)    
Moisture  
Dew Point 53 °F    
Average Humidity 76    
Maximum Humidity 100    
Minimum Humidity 44    
Precipitation  
Precipitation 0.00 in - - ()
Sea Level Pressure  
Sea Level Pressure 30.32 in    
Wind  
Wind Speed 4 mph ()    
Max Wind Speed 15 mph    
Max Gust Speed -    
Visibility 6.1 miles    
Events Rain    
T = Trace of Precipitation, MM = Missing Value Source: Averaged Metar Reports

Daily Weather History Graph

Daily Weather History Graph

Search for Another Location

Airport:

Trip Planner

Search our weather history database for the weather conditions in past years. The results will help you decide how hot, cold, wet, or windy it might be!

Date:

Astronomy

May. 09, 2013 Rise Set
Actual Time 6:19 AM EST 5:11 PM EST
Civil Twilight 5:54 AM EST 5:36 PM EST
Nautical Twilight 5:26 AM EST 6:04 PM EST
Astronomical Twilight 4:58 AM EST 6:32 PM EST
Moon 5:21 AM EST (5/9) 4:37 PM EST (5/9)
Length of Visible Light 11h 41m
Length of Day
10h 52m
Waning Crescent, 1% of the Moon is Illuminated
May 9
Waning Crescent
May 10
New
May 18
First Quarter
May 25
Full
Jun 1
Last Quarter

Hourly Weather History & Observations

Time (EST) Temp. Dew Point Humidity Pressure Visibility Wind Dir Wind Speed Gust Speed Precip Events Conditions
12:00 AM 57.2 °F 53.6 °F 88% 30.36 in 6.2 mi Calm Calm - N/A   Overcast
12:30 AM 55.4 °F 53.6 °F 94% 30.33 in 6.2 mi Calm Calm - N/A   Scattered Clouds
1:00 AM 55.4 °F 51.8 °F 88% 30.33 in 6.2 mi SSW 6.9 mph - N/A   Unknown
1:30 AM 53.6 °F 50.0 °F 88% 30.33 in 6.2 mi SW 5.8 mph - N/A   Unknown
2:00 AM 51.8 °F 50.0 °F 94% 30.33 in 6.2 mi SSW 3.5 mph - N/A   Unknown
2:30 AM 51.8 °F 50.0 °F 94% 30.30 in 6.2 mi SSW 5.8 mph - N/A   Unknown
3:00 AM 51.8 °F 50.0 °F 94% 30.30 in 6.2 mi SSW 3.5 mph - N/A   Unknown
3:30 AM 50.0 °F 50.0 °F 100% 30.30 in 6.2 mi SSW 2.3 mph - N/A   Unknown
4:00 AM 48.2 °F 48.2 °F 100% 30.30 in 6.2 mi SSW 1.2 mph - N/A   Unknown
4:30 AM 48.2 °F 48.2 °F 100% 30.30 in 0.6 mi Calm Calm - N/A   Unknown
5:01 AM 48.2 °F 46.4 °F 93% 30.30 in - Calm Calm - N/A   Unknown
6:00 AM 48.2 °F 46.4 °F 93% 30.33 in 6.2 mi Calm Calm - N/A   Scattered Clouds
6:30 AM 46.4 °F 46.4 °F 100% 30.36 in 6.2 mi Calm Calm - N/A   Partly Cloudy
7:00 AM 50.0 °F 48.2 °F 94% 30.36 in - Calm Calm - N/A   Clear
7:30 AM 53.6 °F 51.8 °F 94% 30.36 in - Calm Calm - N/A   Clear
8:00 AM 59.0 °F 53.6 °F 82% 30.36 in - Calm Calm - N/A   Clear
8:30 AM 62.6 °F 55.4 °F 77% 30.39 in 6.2 mi SW 6.9 mph - N/A   Unknown
9:00 AM 66.2 °F 57.2 °F 73% 30.39 in - SSW 6.9 mph - N/A   Clear
9:30 AM 68.0 °F 57.2 °F 68% 30.39 in - SSW 6.9 mph - N/A   Clear
10:00 AM 69.8 °F 55.4 °F 60% 30.36 in - South 6.9 mph - N/A   Clear
10:30 AM 73.4 °F 51.8 °F 47% 30.36 in 6.2 mi SE 8.1 mph - N/A   Partly Cloudy
11:00 AM 73.4 °F 51.8 °F 47% 30.33 in 6.2 mi SSE 11.5 mph - N/A   Partly Cloudy
11:30 AM 73.4 °F 50.0 °F 44% 30.33 in 6.2 mi SE 6.9 mph - N/A   Scattered Clouds
12:00 PM 73.4 °F 51.8 °F 47% 30.30 in - ESE 8.1 mph - N/A   Clear
12:30 PM 71.6 °F 51.8 °F 50% 30.30 in - East 8.1 mph - N/A   Clear
1:00 PM 73.4 °F 53.6 °F 50% 30.27 in 6.2 mi SE 10.4 mph - N/A   Scattered Clouds
1:30 PM 75.2 °F 51.8 °F 44% 30.27 in 6.2 mi ESE 5.8 mph - N/A   Mostly Cloudy
2:00 PM 71.6 °F 53.6 °F 53% 30.27 in 6.2 mi ENE 9.2 mph - N/A   Mostly Cloudy
2:30 PM 73.4 °F 53.6 °F 50% 30.27 in 6.2 mi East 15.0 mph - N/A   Mostly Cloudy
3:00 PM 71.6 °F 51.8 °F 50% 30.27 in 6.2 mi East 15.0 mph - N/A   Mostly Cloudy
3:30 PM 69.8 °F 55.4 °F 60% 30.27 in 6.2 mi East 12.7 mph - N/A Rain Light Rain Showers
4:00 PM 69.8 °F 53.6 °F 56% 30.27 in 6.2 mi East 10.4 mph - N/A   Mostly Cloudy
4:30 PM 69.8 °F 53.6 °F 56% 30.27 in 6.2 mi East 10.4 mph - N/A   Mostly Cloudy
5:00 PM 68.0 °F 55.4 °F 64% 30.27 in 6.2 mi East 10.4 mph - N/A   Mostly Cloudy
5:30 PM 66.2 °F 57.2 °F 73% 30.30 in 6.2 mi East 9.2 mph - N/A   Mostly Cloudy
6:00 PM 66.2 °F 57.2 °F 73% 30.30 in 6.2 mi East 8.1 mph - N/A   Mostly Cloudy
6:30 PM 66.2 °F 57.2 °F 73% 30.33 in 6.2 mi East 6.9 mph - N/A   Mostly Cloudy
7:00 PM 66.2 °F 59.0 °F 78% 30.33 in 6.2 mi East 5.8 mph - N/A Rain Light Rain Showers
7:30 PM 64.4 °F 59.0 °F 83% 30.33 in 6.2 mi South 4.6 mph - N/A   Mostly Cloudy
8:00 PM 64.4 °F 57.2 °F 77% 30.33 in 6.2 mi South 4.6 mph - N/A   Scattered Clouds
8:30 PM 60.8 °F 57.2 °F 88% 30.33 in 6.2 mi South 4.6 mph - N/A   Scattered Clouds
9:00 PM 60.8 °F 57.2 °F 88% 30.36 in 6.2 mi South 5.8 mph - N/A   Scattered Clouds
9:30 PM 60.8 °F 57.2 °F 88% 30.36 in 6.2 mi SSW 4.6 mph - N/A   Overcast
10:00 PM 60.8 °F 57.2 °F 88% 30.33 in 6.2 mi SSW 4.6 mph - N/A   Mostly Cloudy
10:30 PM 60.8 °F 57.2 °F 88% 30.33 in 6.2 mi Calm Calm - N/A   Overcast
11:00 PM 60.8 °F 57.2 °F 88% 30.33 in 6.2 mi Calm Calm - N/A   Mostly Cloudy
11:30 PM 62.6 °F 57.2 °F 82% 30.33 in 6.2 mi Calm Calm - N/A   Overcast